Lapse_Rate
5.9 6.0 5.9 5.9 5.9 5.9 6.2 6.6 6.7 6.4 6.1 6.5 6.4 6.4 6.4 7.0 7.0 7.0 6.6 7.0 7.0 6.7 6.3 6.4 5.9 5.8 5.8 5.6 5.6 5.6 5.6 5.6 5.5 5.4 5.6 5.8 5.8 6.0 6.2 6.0 5.9 5.8 5.8
6.1 6.0 6.0 6.0 5.9 5.8 5.9 5.9 6.4 6.5 6.6 6.5 6.4 6.5 6.4 6.5 7.0 6.9 5.1 7.0 7.2 7.1 6.4 6.4 6.1 5.9 6.0 5.7 5.6 5.6 5.6 5.7 5.5 5.5 5.5 5.6 5.7 6.0 6.1 6.1 6.0 5.8 5.7
6.0 6.1 6.2 6.2 6.1 5.9 5.9 5.9 5.9 6.1 6.3 6.4 6.5 6.4 6.4 6.6 6.7 6.6 6.9 7.1 7.1 7.1 7.2 6.5 6.4 6.1 6.1 6.1 5.7 5.7 5.5 5.5 5.6 5.5 5.5 5.3 5.6 5.7 6.1 6.1 6.1 5.9 6.1
6.1 6.3 6.4 6.5 6.6 6.5 6.3 6.2 6.0 6.0 6.0 6.1 6.4 6.6 6.6 6.3 6.5 6.6 6.3 6.7 7.0 7.1 7.0 6.8 6.5 6.3 6.0 6.1 6.0 5.8 5.8 5.6 5.7 5.5 5.3 5.4 5.2 5.5 5.8 6.0 6.1 6.2 6.1
6.6 6.6 6.8 7.1 7.0 6.8 6.7 6.5 6.3 6.3 6.1 6.1 6.0 6.2 6.6 6.7 6.4 6.4 6.4 6.6 6.7 6.3 6.8 7.2 6.7 6.4 6.2 6.1 6.0 6.0 6.0 5.9 5.6 5.6 5.6 5.4 5.5 5.3 5.7 6.0 6.0 6.0 6.1
7.1 7.2 7.0 7.1 7.1 7.0 7.0 6.8 6.7 6.7 6.4 6.5 6.3 6.1 6.4 6.6 6.7 6.6 6.4 6.3 6.5 6.4 6.6 6.3 6.5 6.4 6.4 6.0 6.1 6.1 6.1 6.0 5.9 5.7 5.7 5.6 5.5 5.5 5.7 5.9 5.9 6.0 5.9
7.7 7.7 7.6 7.6 7.4 7.2 7.1 7.0 7.0 7.0 6.9 6.6 6.6 6.4 6.5 6.6 6.7 6.7 6.7 6.3 6.4 6.8 6.4 6.5 6.4 6.8 6.4 6.2 6.2 6.2 6.2 6.2 6.1 6.0 5.8 5.6 5.6 5.5 5.6 5.7 5.7 5.6 5.6
7.0 7.1 7.3 7.3 7.1 7.1 7.1 6.9 6.6 6.8 6.9 6.5 6.4 6.7 6.7 6.5 6.6 6.8 6.7 6.7 6.4 6.5 6.6 6.3 6.2 6.8 6.7 6.3 6.3 6.3 6.2 6.2 6.2 6.2 5.9 5.8 5.7 5.6 5.6 5.6 5.6 5.5 5.6
6.7 6.8 6.9 7.1 7.1 7.3 7.3 7.0 6.8 6.6 6.7 6.7 6.4 6.3 6.5 6.7 6.6 6.8 6.7 6.7 6.7 6.5 6.5 6.4 5.4 6.2 6.7 6.8 6.3 6.3 6.3 6.2 6.2 6.3 6.1 5.9 5.8 5.8 5.7 5.7 5.8 5.7 5.7
6.8 6.6 6.6 6.7 6.6 6.6 6.7 6.7 6.8 6.8 6.6 6.9 6.7 6.6 6.6 6.7 5.7 6.0 6.6 6.6 6.8 6.6 6.5 6.4 6.2 5.9 6.3 6.7 6.7 6.4 6.4 6.4 6.2 6.3 6.3 5.9 5.9 5.9 5.8 5.7 5.7 5.7 5.5
6.3 6.1 6.2 6.3 6.3 6.2 6.4 6.4 6.3 6.4 6.4 6.5 6.8 6.8 6.8 7.0 6.6 5.8 5.8 6.2 6.8 6.8 6.6 6.6 6.3 6.2 6.3 6.1 6.7 7.0 6.5 6.4 6.3 6.2 6.4 6.1 5.9 5.8 5.8 5.8 5.8 5.7 5.6
6.1 6.0 5.8 5.9 5.8 6.1 6.2 6.4 6.3 6.3 6.1 6.4 6.4 6.5 6.6 6.7 6.8 6.0 5.8 5.7 7.0 7.1 6.8 6.4 6.0 6.4 6.4 6.6 6.3 6.8 6.8 6.5 6.4 6.2 6.3 6.3 6.1 5.9 5.9 5.8 5.8 5.7 5.8
5.9 6.3 5.8 5.7 5.8 5.6 5.5 5.7 5.9 5.9 6.0 6.1 6.3 6.3 6.4 6.6 6.6 6.2 5.9 5.9 6.4 6.9 6.8 6.5 6.4 6.2 6.6 6.2 6.3 6.2 6.6 6.5 6.3 6.3 6.3 6.4 6.3 6.2 6.0 5.8 5.8 5.8 5.7
5.5 5.4 5.6 5.6 5.6 5.4 5.2 5.5 5.5 5.2 5.1 5.4 5.9 6.0 6.1 6.4 6.4 6.2 6.2 6.2 6.3 6.5 6.5 6.5 6.5 6.2 6.1 6.3 5.9 6.0 6.2 6.4 6.5 6.2 6.1 6.4 6.5 6.3 6.3 6.1 5.9 5.9 5.9
5.2 5.4 5.2 5.1 5.1 5.1 5.3 5.0 5.0 5.2 5.4 5.0 5.6 6.0 5.6 6.0 6.0 6.2 6.2 6.5 6.3 6.3 6.4 6.2 6.3 6.2 6.1 6.0 5.4 5.8 6.1 6.1 6.5 6.5 5.8 6.4 6.5 6.4 6.2 6.3 6.1 6.1 6.0
4.8 5.0 5.1 4.9 5.2 5.5 5.5 5.1 4.9 5.0 4.2 4.7 5.0 4.8 5.0 5.3 5.6 5.8 5.9 6.1 6.2 6.4 6.1 6.2 6.1 6.1 6.0 5.7 6.2 5.6 5.9 6.3 6.3 6.5 6.1 6.0 6.4 6.5 6.5 6.5 6.5 6.4 6.3
4.6 4.4 4.8 4.6 4.8 4.9 4.9 5.4 4.9 5.0 4.8 5.3 5.2 5.1 4.9 5.4 5.3 5.7 5.8 6.0 6.2 6.1 6.0 6.3 6.0 6.5 6.7 5.6 5.8 5.9 5.8 6.1 6.3 6.4 6.2 5.9 6.3 6.5 6.6 6.7 6.6 6.5 6.5
4.9 4.3 4.4 4.5 4.3 4.4 4.6 5.0 5.4 5.7 5.7 6.4 6.1 6.2 5.9 5.8 5.6 5.9 5.8 6.2 6.0 5.9 6.1 6.7 6.7 6.4 6.5 6.2 6.4 5.6 6.0 6.2 6.2 6.4 6.4 6.0 6.3 6.3 6.3 6.4 6.2 6.2 6.1
5.3 5.2 4.5 5.0 4.7 4.2 4.6 4.8 5.4 6.0 6.2 6.4 6.4 6.5 6.4 6.2 6.2 6.4 6.0 6.1 5.9 5.8 6.3 6.3 6.3 6.1 6.0 6.1 5.2 5.4 6.1 5.9 5.2 5.6 6.0 5.7 5.8 6.0 6.0 6.1 5.9 5.8 5.9
5.6 5.7 5.7 5.4 5.2 4.2 4.4 4.4 5.2 5.7 6.2 6.4 6.6 6.4 6.4 6.2 6.3 6.1 5.6 6.0 6.1 6.2 6.4 6.5 6.5 6.5 6.3 5.5 5.9 5.6 5.4 5.0 5.0 6.2 5.7 5.7 5.8 6.1 6.1 6.0 5.9 5.9 5.9
6.0 6.0 5.7 5.9 5.7 5.1 5.2 4.6 4.8 5.0 5.3 5.7 6.0 6.0 6.1 6.0 5.6 5.9 6.2 6.1 6.0 6.1 6.2 6.3 6.7 6.6 6.2 5.8 5.5 5.9 5.3 5.1 5.0 4.4 5.3 5.6 5.9 5.8 6.2 6.4 6.3 6.3 6.1
6.1 6.1 6.0 5.8 6.2 6.4 5.9 5.3 4.9 5.2 5.3 5.5 5.4 5.5 5.5 5.4 6.0 6.2 6.3 6.1 5.9 6.2 6.4 6.5 6.5 6.4 6.1 6.1 5.2 5.0 5.5 5.5 5.2 5.3 6.0 5.1 5.3 5.5 5.9 6.1 6.0 6.3 6.2
6.3 6.3 6.1 6.0 5.9 6.1 6.2 6.1 5.7 5.3 5.2 5.4 5.7 5.7 5.4 5.2 5.2 5.3 5.1 5.2 6.0 6.5 6.4 6.3 6.3 6.3 5.9 5.9 5.2 5.3 5.3 5.6 5.5 5.3 5.1 5.0 5.2 5.2 5.4 5.6 5.7 5.9 6.0
6.5 6.6 6.5 6.4 6.2 6.2 6.1 6.1 5.9 5.8 5.8 5.5 5.5 5.3 5.4 5.6 5.6 5.2 4.8 4.8 4.9 4.9 4.9 5.2 5.3 5.4 5.3 5.0 5.5 5.4 5.4 5.7 5.7 5.7 5.0 4.6 5.5 6.1 5.5 5.4 5.6 5.7 5.8
6.7 6.8 6.5 6.5 6.3 6.3 6.4 6.4 6.5 6.1 6.2 6.1 6.1 5.9 5.7 5.5 5.2 5.4 5.4 5.6 5.4 5.3 4.9 5.0 5.0 4.9 4.8 4.6 4.3 5.3 5.9 5.2 5.4 5.3 5.4 5.4 5.3 5.5 5.1 5.4 5.8 6.0 5.8
6.8 6.7 6.7 6.6 6.5 6.4 6.4 6.4 6.6 6.8 6.5 6.9 6.6 6.4 6.1 5.9 6.1 6.1 5.9 5.5 5.5 5.2 5.3 5.5 5.2 5.0 4.8 4.6 4.5 4.3 4.6 4.8 4.9 5.0 4.9 4.9 5.0 5.1 5.1 5.4 5.2 5.7 5.5
Wind_Speed
7 12 12 14 14 17 13 9 8 6 6 10 10 12 14 11 13 14 13 26 27 24 23 25 24 24 24 25 26 25 25 24 24 24 23 23 23 22 22 23 24 24 23
10 8 8 9 11 16 17 13 11 11 11 6 8 11 14 14 11 14 13 17 24 24 23 26 25 25 26 27 27 26 25 25 26 23 25 23 23 23 22 23 25 26 24
14 12 8 9 11 17 18 15 12 11 10 10 7 9 10 14 13 11 8 11 18 28 29 26 27 26 27 29 28 27 26 24 24 23 21 19 21 22 23 24 25 26 25
20 16 10 10 17 17 12 10 10 10 11 11 9 8 8 11 14 14 8 11 14 17 21 27 26 26 28 30 30 30 28 25 24 25 23 21 20 23 24 25 25 26 25
18 16 10 12 19 11 11 11 11 11 10 11 11 11 8 9 11 12 16 13 13 16 16 24 27 27 27 29 32 32 31 29 28 28 27 28 27 25 25 25 24 25 25
18 15 13 13 16 10 11 11 14 12 12 11 12 12 10 10 9 11 13 12 13 14 18 18 21 22 26 29 32 33 33 32 31 31 30 29 28 27 27 26 25 25 25
20 17 12 11 10 10 11 12 12 14 12 12 10 10 11 13 8 10 11 13 11 13 9 13 16 18 19 28 31 33 33 33 33 32 32 31 30 29 28 28 26 25 24
20 17 14 10 11 9 11 11 11 10 11 9 7 10 8 10 11 11 10 11 14 10 11 9 12 17 19 20 25 31 33 34 34 34 33 33 31 31 30 29 28 27 26
18 18 18 12 11 11 10 10 10 13 10 10 13 6 4 8 4 6 14 12 13 10 5 2 9 15 18 20 24 27 31 32 33 34 34 33 32 32 32 31 30 29 28
17 17 18 17 13 11 12 11 11 11 11 11 9 11 14 14 7 6 4 9 12 13 12 9 12 18 16 15 23 27 31 33 32 33 34 34 33 33 33 32 31 30 29
18 18 18 17 13 10 12 14 13 13 11 11 10 11 12 12 14 13 8 3 5 6 8 10 12 9 13 14 17 24 32 35 33 33 34 35 35 35 34 33 32 32 31
10 15 20 15 13 12 12 12 14 14 13 12 11 12 12 9 9 9 12 6 6 7 9 11 15 13 11 10 19 24 32 33 33 33 34 33 35 35 34 34 33 32 32
11 13 16 15 13 14 14 13 13 15 13 12 14 12 12 14 12 13 13 13 4 3 6 9 9 9 9 8 12 25 30 32 34 33 33 34 33 34 34 33 33 33 32
11 15 15 14 16 16 14 13 10 12 13 13 15 14 12 12 11 13 12 11 10 6 4 4 3 4 6 7 12 19 20 33 34 35 35 34 33 32 32 32 32 32 32
12 16 16 17 17 17 18 17 11 14 16 8 7 9 8 10 12 12 12 10 7 7 9 5 5 5 6 8 16 19 13 28 31 34 33 33 33 32 31 31 31 31 30
14 16 16 17 17 17 17 16 13 15 15 10 8 10 7 7 5 6 9 10 8 9 8 5 6 7 11 9 15 18 15 21 31 31 33 32 33 33 33 33 32 31 30
14 16 16 15 16 18 19 17 17 17 16 15 13 12 13 11 7 7 6 6 3 6 10 6 3 7 10 13 16 15 15 12 13 27 30 31 31 32 32 32 31 32 31
14 15 16 15 16 17 18 20 18 16 16 17 15 14 15 10 11 11 6 8 7 5 3 6 5 4 4 3 2 3 13 9 12 23 27 28 28 27 26 28 30 30 31
13 12 16 17 16 17 18 18 18 18 16 17 16 16 17 16 17 12 11 10 9 7 5 4 4 4 1 2 2 3 11 11 15 12 15 9 9 11 10 9 7 7 12
12 12 14 16 15 15 17 17 17 18 17 17 18 18 18 20 22 16 15 14 11 10 10 9 6 5 3 5 6 3 7 7 11 16 5 11 17 21 18 17 12 3 8
10 10 12 14 15 14 12 16 15 16 17 18 18 18 19 25 33 28 16 17 15 12 11 10 11 8 7 6 9 6 1 6 5 8 9 10 9 9 11 20 19 21 20
9 12 11 14 16 13 25 25 19 13 16 17 17 18 19 26 22 31 31 33 27 16 16 12 11 10 12 10 8 8 3 2 2 9 5 10 9 9 8 15 23 24 23
9 11 14 13 16 17 30 25 25 13 15 17 19 18 17 16 23 17 23 25 27 30 21 14 14 14 13 14 12 9 10 9 5 5 3 6 7 7 7 14 23 25 23
10 10 11 14 13 16 30 27 24 14 14 17 18 19 19 20 23 19 16 16 18 17 18 13 14 13 15 15 14 8 5 4 5 9 6 2 5 2 6 11 22 22 23
7 8 9 12 13 14 29 28 20 13 14 14 15 17 17 18 30 29 17 16 16 16 21 28 27 28 29 31 24 9 11 6 5 7 11 3 5 2 1 6 11 21 22
7 5 8 8 18 14 26 28 21 10 13 11 13 14 28 24 31 31 17 16 16 15 14 13 13 16 22 22 26 14 10 8 7 6 8 4 6 4 2 3 3 7 11
Wind_Direction
328 328 322 319 319 317 312 307 303 268 250 249 237 243 252 235 217 216 227 185 185 192 191 187 187 193 193 192 192 198 199 190 195 190 187 188 189 190 193 194 172 168 169
324 320 323 315 315 313 311 310 307 305 300 235 242 239 247 259 250 218 237 179 189 187 195 187 190 196 196 193 193 199 196 194 197 193 190 188 188 189 193 190 182 174 176
325 328 322 313 310 312 318 313 308 299 288 274 235 242 241 251 259 251 214 182 190 192 192 193 191 194 196 195 194 195 195 195 195 188 178 184 191 189 190 188 184 179 182
345 335 326 323 327 322 310 307 305 299 293 290 278 237 238 242 246 255 233 207 187 194 199 193 195 192 197 198 196 195 198 197 194 186 181 186 197 195 189 188 185 185 186
341 332 329 325 325 321 323 317 307 301 295 293 279 283 231 234 239 243 245 226 193 191 188 203 198 197 194 200 199 198 198 197 195 191 187 194 195 199 190 189 188 189 190
341 347 332 322 318 311 303 303 313 310 308 292 295 289 295 248 226 234 245 241 207 193 183 188 207 204 199 199 202 201 200 197 197 196 195 197 199 197 191 191 192 193 195
339 330 317 313 304 296 298 300 300 306 302 310 292 286 283 275 251 227 231 243 229 215 190 194 191 196 206 202 200 203 203 200 199 200 199 200 200 197 195 194 195 197 199
338 334 325 309 304 297 290 289 288 287 291 288 296 294 275 275 243 240 236 242 247 234 227 194 173 205 189 196 204 203 205 204 201 201 201 201 202 199 197 196 198 199 201
339 335 333 325 322 320 307 291 284 280 281 287 280 275 265 243 262 207 230 231 235 227 184 203 232 197 192 190 197 203 203 206 204 202 202 202 202 200 199 199 200 200 200
335 339 340 331 323 315 303 301 294 281 273 270 276 267 266 279 287 253 221 227 223 213 189 206 216 216 201 188 194 198 201 200 201 201 202 201 202 202 201 201 202 202 204
338 346 338 328 317 312 300 291 285 279 278 274 263 278 273 281 281 259 268 239 217 234 189 216 216 220 198 201 193 198 192 197 197 197 201 202 203 205 204 204 204 204 205
341 346 339 333 323 317 310 301 287 274 271 261 260 262 269 258 279 267 246 250 212 219 210 196 214 216 218 196 201 199 191 194 196 199 199 200 201 204 205 206 206 206 207
348 344 344 340 334 331 326 313 296 285 259 258 258 253 256 260 262 272 261 243 227 256 221 212 216 215 219 219 215 192 189 194 195 197 199 197 200 202 205 207 207 208 209
347 346 348 347 343 341 340 328 308 297 263 252 250 251 258 265 263 262 270 246 239 227 233 247 230 217 223 242 242 196 194 193 195 198 198 197 196 197 200 205 207 207 209
353 350 355 355 355 353 352 346 344 343 339 257 279 287 289 260 266 262 264 256 222 229 229 219 221 222 228 217 228 232 211 202 197 195 197 196 195 194 197 200 203 205 206
2 354 356 359 1 3 360 356 3 1 357 357 2 338 346 338 316 342 279 262 239 239 247 194 208 210 212 227 233 233 221 194 199 196 195 194 194 194 196 199 201 201 203
9 6 354 1 6 11 7 8 11 7 7 6 11 359 12 346 360 5 359 346 346 276 255 265 275 211 231 231 233 228 226 201 199 199 196 194 195 196 197 199 200 201 202
11 14 5 360 10 16 16 12 11 7 12 9 14 12 17 9 16 17 0 19 4 328 353 294 265 262 201 32 69 45 21 264 198 203 198 197 192 193 197 198 200 201 204
15 18 14 6 10 15 20 15 12 13 14 14 10 21 23 20 25 19 26 28 2 349 357 296 335 359 9 81 168 80 30 23 9 317 190 193 183 186 161 139 148 187 210
22 19 25 13 7 21 23 19 17 17 14 15 17 17 18 29 35 22 29 27 18 22 18 21 22 30 349 358 353 13 81 50 38 355 51 91 93 81 82 78 74 97 226
25 26 26 24 15 15 31 30 23 20 20 18 17 19 18 27 37 36 39 34 31 36 37 35 40 30 9 7 344 353 300 140 85 53 340 75 75 73 67 66 63 58 57
42 24 29 28 24 18 24 37 37 30 27 28 23 23 22 20 21 33 38 45 46 41 44 43 40 30 19 359 336 336 324 47 106 62 333 28 54 64 65 69 69 60 56
38 40 27 32 27 25 21 30 37 34 30 26 28 24 26 23 20 22 30 34 40 42 44 41 42 32 22 2 345 352 33 50 43 18 86 12 32 57 65 70 72 65 58
44 36 35 27 31 28 27 25 30 30 38 33 25 31 28 25 27 22 23 31 36 34 34 36 34 30 29 16 8 338 347 89 67 31 9 70 23 18 41 54 64 56 57
37 46 41 35 31 28 30 28 23 31 28 34 30 27 35 32 32 31 27 29 30 31 26 32 36 33 31 30 20 10 26 15 72 24 7 48 357 11 40 38 47 49 49
24 51 53 53 41 27 26 28 28 22 29 25 28 27 31 34 35 35 32 26 28 17 16 18 23 21 27 21 19 23 18 27 47 45 355 23 351 358 31 45 27 33 33